Location: Penum?ka
(16.4840°N, 80.5772°E)
Time: 01:37:19
(UTC+00:00)

SPOT 5 - Pass Details

Date: 19 May 2025
Orbit: 620 x 803 km, 98.0° (Epoch: 24 June)

Event Time Altitude Azimuth Distance (km) Brightness Sun altitude
Exits shadow 14:48:08 27° 39° (NE) 1,233 4.0 -23.6°
Drops below altitude 10° 14:50:36 10° 12° (NNE) 2,003 5.4 -24.1°
Sets 14:52:54 0° 3° (N) 2,898 6.4 -24.6°
